User: anonymous   Login
Location: Oshawa
(43.9000°N, 78.8670°W)
Time: 18:05:38
(UTC-05:00)
Language:

CZ-4C R/B - Orbit

View from above orbital plane
View from above orbital plane
View from above satellite
View from above satellite

Ground track
Ground track

The orbit data is extracted from the following two-line orbital elements,

1 32290U 07055B   18051.38964509  .00001804  00000-0  50690-4 0  9999
2 32290  97.5434 168.4993 0063968 328.0097  31.7269 15.35962424569909
Epoch (UTC): 20 February 2018 09:21:05
Eccentricity: 0.0063968
inclination: 97.5434°
perigee height: 414 km
apogee height: 502 km
right ascension of ascending node: 168.4993°
argument of perigee: 328.0097°
revolutions per day: 15.35962424
mean anomaly at epoch: 31.7269°
orbit number at epoch: 56990

The dashed part of the orbit path shows where the satellite is in the earth's shadow,  

DLR